Location: ??????????
(48.4699°N, 37.9573°E)
Time: 12:43:41
(UTC+00:00)

Cosmos 1689 Rocket - Pass Details

Date: 20 January 2021
Orbit: 353 x 367 km, 97.5° (Epoch: 26 February)

Event Time Altitude Azimuth Distance (km) Brightness Sun altitude
Exits shadow 15:14:10 11° 115° (ESE) 1,307 4.3 -10.8°
Drops below altitude 10° 15:14:20 10° 118° (ESE) 1,337 4.4 -10.8°
Sets 15:17:08 0° 151° (SSE) 2,169 5.8 -11.3°
